Tracking 29932 objects as of 3-Dec-2024
HD Live streaming from Space Station
objects crossing your sky now

STARLINK-30593

Track STARLINK-30593 now!
10-day predictions
STARLINK-30593 is classified as:


NORAD ID: 58112
Int'l Code: 2023-161R
Perigee: 481.7 km
Apogee: 483.1 km
Inclination: 53.2 °
Period: 94.1 minutes
Semi major axis: 6853 km
RCS: Unknown
Launch date: October 21, 2023
Source: United States (US)
Launch site: AIR FORCE WESTERN TEST RANGE (AFWTR)
Your satellite tracking list
Your tracking list is empty




NASA's NSSDC Master Catalog

Two Line Element Set (TLE):
1 58112U 23161R   24337.87179800  .00000627  00000-0  33292-4 0  9997
2 58112  53.1592 150.7410 0001028 118.4626 241.6478 15.30186442 63691
Source of the keplerian elements: AFSPC